Valdosta, GA

10:25 AM EST on December 06, 2016 (GMT -0500)
Valdosta Regional

Weather History for KVLD - April, 2013

Change the Weather History Date:

Tuesday, April 2, 2013

  Actual Average Record
Temperature  
Mean Temperature 67 °F 63 °F  
Max Temperature 84 °F 76 °F 91 °F (2012)
Min Temperature 50 °F 50 °F 39 °F (2001)
Degree Days  
Heating Degree Days 0 4  
Month to date heating degree days 0 8  
Since 1 July heating degree days 1143 1574  
Cooling Degree Days 2 2  
Month to date cooling degree days 9 4  
Year to date cooling degree days 112 47  
Growing Degree Days 18 (Base 50)    
Moisture  
Dew Point 46 °F    
Average Humidity 56    
Maximum Humidity 89    
Minimum Humidity 22    
Precipitation  
Precipitation 0.00 in 0.12 in 3.64 in (2009)
Month to date precipitation T 0.25  
Year to date precipitation 8.44 13.85  
Sea Level Pressure  
Sea Level Pressure 30.09 in    
Wind  
Wind Speed 3 mph (NE)    
Max Wind Speed 10 mph    
Max Gust Speed 15 mph    
Visibility 10 miles    
Events      
T = Trace of Precipitation, MM = Missing Value Source: NWS Daily Summary

Daily Weather History Graph

Daily Weather History Graph

Search for Another Location

Airport or City:

Trip Planner

Search our weather history database for the weather conditions in past years. The results will help you decide how hot, cold, wet, or windy it might be!

Date:

Astronomy

Apr. 02, 2013 Rise Set
Actual Time 7:20 AM EDT 7:52 PM EDT
Civil Twilight 6:56 AM EDT 8:17 PM EDT
Nautical Twilight 6:27 AM EDT 8:45 PM EDT
Astronomical Twilight 5:58 AM EDT 9:14 PM EDT
Moon 1:40 AM EDT (4/2) 12:26 PM EDT (4/2)
Length of Visible Light 13h 21m
Length of Day
12h 32m
Waning Gibbous, 56% of the Moon is Illuminated
Apr 2
Waning Gibbous
Apr 3
Last Quarter
Apr 10
New
Apr 18
First Quarter
Apr 25
Full

Hourly Weather History & Observations

Time (EDT) Temp. Dew Point Humidity Pressure Visibility Wind Dir Wind Speed Gust Speed Precip Events Conditions
12:53 AM 57.9 °F 51.1 °F 78% 30.04 in 10.0 mi Calm Calm - N/A   Clear
1:53 AM 57.0 °F 50.0 °F 77% 30.04 in 10.0 mi Calm Calm - N/A   Clear
2:53 AM 55.0 °F 48.9 °F 80% 30.04 in 10.0 mi Calm Calm - N/A   Clear
3:53 AM 54.0 °F 48.9 °F 83% 30.04 in 10.0 mi Calm Calm - N/A   Clear
4:53 AM 52.0 °F 48.0 °F 86% 30.06 in 9.0 mi Calm Calm - N/A   Clear
5:53 AM 53.1 °F 48.0 °F 83% 30.07 in 9.0 mi Calm Calm - N/A   Clear
6:53 AM 51.1 °F 46.9 °F 86% 30.10 in 10.0 mi North 3.5 mph - N/A   Clear
7:53 AM 51.1 °F 46.0 °F 83% 30.13 in 10.0 mi Calm Calm - N/A   Clear
8:53 AM 63.0 °F 48.9 °F 60% 30.15 in 10.0 mi NE 4.6 mph - N/A   Clear
9:53 AM 69.1 °F 45.0 °F 42% 30.15 in 10.0 mi East 8.1 mph - N/A   Partly Cloudy
10:53 AM 73.9 °F 44.1 °F 34% 30.15 in 10.0 mi ENE 8.1 mph - N/A   Clear
11:53 AM 75.9 °F 44.1 °F 32% 30.16 in 10.0 mi ENE 6.9 mph - N/A   Clear
12:53 PM 79.0 °F 44.1 °F 29% 30.15 in 10.0 mi NNE 4.6 mph - N/A   Clear
1:53 PM 80.1 °F 42.1 °F 26% 30.12 in 10.0 mi Variable 3.5 mph - N/A   Clear
2:53 PM 82.0 °F 42.1 °F 24% 30.10 in 10.0 mi Variable 3.5 mph - N/A   Clear
3:53 PM 82.9 °F 42.1 °F 24% 30.08 in 10.0 mi NW 4.6 mph - N/A   Clear
4:53 PM 84.0 °F 41.0 °F 22% 30.07 in 10.0 mi SSW 4.6 mph - N/A   Clear
5:53 PM 82.0 °F 39.0 °F 22% 30.06 in 10.0 mi Calm Calm - N/A   Clear
6:53 PM 80.1 °F 42.1 °F 26% 30.06 in 10.0 mi NNE 4.6 mph - N/A   Clear
7:53 PM 72.0 °F 46.9 °F 41% 30.06 in 10.0 mi NNE 3.5 mph - N/A   Clear
8:53 PM 64.0 °F 46.9 °F 54% 30.07 in 10.0 mi Calm Calm - N/A   Clear
9:53 PM 61.0 °F 48.0 °F 62% 30.10 in 10.0 mi Calm Calm - N/A   Clear
10:53 PM 60.1 °F 50.0 °F 69% 30.12 in 10.0 mi Calm Calm - N/A   Clear
11:53 PM 60.1 °F 48.9 °F 67% 30.12 in 10.0 mi ESE 3.5 mph - N/A   Clear